Content
SEND FEEDBACK

Daily
Averages
Monthly
Summary
United States of America

EL PASO, TEXAS


Home > North America > United States > Texas
Elevation: 3918 feet     Latitude: 31 48N     Longitude: 106 24W

WEATHER
 
SELECT A DAY
Number of Records: 172,236;   Date Range: 1/1/95 - 9/20/14
 
SHARE

PRINT THIS DATA

[ ← Previous Day ]
WEATHER ALMANAC - AUGUST 7, 2014
[ Next Day → ]
[ °C ]   °F
Weather ElementAverageHighLow
Temperature80.1 °F93 °F (3:51 pm)71.1 °F (9:14 pm)
Dewpoint60.5 °F66 °F (10:51 pm)53.6 °F (5:51 pm)
Humidity54.3 %81 % (9:14 pm)28 % (4:51 pm)
Barometer29.87 in30.09 in (11:51 am)29.74 in (4:51 pm)
Wind Speed8.9 mph20.7 mph (7:51 pm)
Wind Gust29.9 mph (7:51 pm)
Weather ElementAverage
Visibility9.3 mi
Wind DirectionSSE (168.1 °)

Weather ElementTotal
Precipitation0.42 in
Cooling Degree Days17.1 (Base 65)
Growing Degree Days32.1 (Base 50)
Averaged from 26 records on August 7, 2014
WEATHER CONDITIONS BREAKOUT
WIND DIRECTION BREAKOUT
WEATHER BY HOUR - AUGUST 7, 2014
[ °C ]   °F
Local TimeTemperatureDewpointHumidityBarometerVisibilityWind DirectionWind SpeedGust SpeedPrecipitationEventsConditions
12:51 AM77.0 °F64.0 °F64 %29.84 in10.0 miWSW (240°)12.7 mph24.2 mph0.00 inRainLight Rain
1:51 AM75.9 °F62.1 °F62 %29.85 in10.0 miSouth (190°)18.4 mph25.3 mph0.00 inOvercast
2:51 AM75.0 °F63.0 °F66 %29.84 in10.0 miSouth (190°)10.4 mph0.00 inRainLight Rain
3:51 AM75.9 °F61.0 °F60 %29.84 in10.0 miSW (230°)8.1 mph0.00 inRainLight Rain
4:51 AM77.0 °F60.1 °F56 %29.82 in10.0 miNNW (330°)6.9 mph0.00 inOvercast
5:51 AM75.9 °F61.0 °F60 %29.82 in10.0 miEast (80°)8.1 mphOvercast
6:51 AM75.0 °F61.0 °F62 %29.84 in10.0 miSE (130°)8.1 mphMostly Cloudy
7:51 AM75.0 °F62.1 °F64 %29.86 in10.0 miSouth (190°)5.8 mphMostly Cloudy
8:51 AM75.0 °F62.1 °F64 %29.85 in10.0 miSouth (170°)9.2 mphMostly Cloudy
9:51 AM80.1 °F62.1 °F54 %29.85 in10.0 miSouth (170°)5.8 mphMostly Cloudy
10:51 AM82.0 °F59.0 °F45 %29.87 in10.0 miSSW (210°)5.8 mphMostly Cloudy
11:51 AM86.0 °F59.0 °F40 %30.09 in10.0 miSouth (190°)6.9 mphMostly Cloudy
12:51 PM88.0 °F57.9 °F36 %29.83 in10.0 miCalmScattered Clouds
1:51 PM90.0 °F57.0 °F33 %29.81 in10.0 miVariable3.5 mphScattered Clouds
2:51 PM91.9 °F57.0 °F31 %29.78 in10.0 miSW (220°)9.2 mph18.4 mphPartly Cloudy
3:51 PM93.0 °F55.9 °F29 %29.76 in10.0 miWest (270°)9.2 mph20.7 mphScattered Clouds
4:51 PM93.0 °F55.0 °F28 %29.74 in10.0 miWest (260°)4.6 mphScattered Clouds
5:51 PM91.4 °F53.6 °F28 %29.97 in10.0 miNW (310°)10.4 mphScattered Clouds
6:51 PM88.0 °F55.9 °F34 %29.76 in10.0 miNorth (350°)15.0 mph25.3 mph0.00 inRainLight Rain
7:51 PM81.0 °F59.0 °F47 %29.82 in10.0 miEast (90°)20.7 mph29.9 mph0.00 inRain-ThunderstormLight Thunderstorms and Rain
8:51 PM72.0 °F64.0 °F76 %29.88 in5.0 miSE (130°)9.2 mph0.08 inRain-ThunderstormLight Thunderstorms and Rain
8:56 PM72.0 °F64.9 °F78 %30.08 in3.0 miESE (120°)11.5 mph21.9 mph0.03 inRain-ThunderstormThunderstorms and Rain
9:14 PM71.1 °F64.9 °F81 %30.08 in5.0 miENE (70°)13.8 mph0.12 inRain-ThunderstormLight Thunderstorms and Rain
9:51 PM73.0 °F63.0 °F71 %29.87 in10.0 miNNE (20°)11.5 mph0.19 inMostly Cloudy
10:51 PM73.0 °F66.0 °F79 %29.86 in10.0 miSSW (210°)6.9 mph0.00 inScattered Clouds
11:51 PM75.2 °F62.6 °F65 %30.06 in10.0 miCalmMostly Cloudy
Hourly data recorded from KELP, located miles away from El Paso, Texas







STORIES FROM OUR PARTNERS